This demonstration page uses our WeatherBlox Daily Observations layout. Learn more.

Left ArrowRight Arrow

39.92423, -83.80882

Hourly Observations for April 3, 2022

Temp ( °F °C ) Dew Point ( °F °C ) Humidity (%) Winds ( mph kmh ) Pressure ( in mb ) Visibility ( mi km ) Precip ( " mm )
12:56 am 00:56 Cloudy 40 4.4 35 1.7 83 83 W 21 33 29.90 1012 10 16 0.00 0.00
1:56 am 01:56 Cloudy 39 3.9 35 1.7 86 86 W 21 33 29.91 1013 10 16 0.00 0.00
2:56 am 02:56 Cloudy 38 3.3 34 1.1 86 86 W 18 30 29.92 1013 10 16 0.00 0.00
3:56 am 03:56 Cloudy 38 3.3 34 1.1 86 86 WNW 17 28 29.94 1014 10 16 0.00 0.00
4:56 am 04:56 Cloudy 37 2.8 34 1.1 89 89 WNW 17 28 29.96 1015 10 16 0.00 0.00
5:56 am 05:56 Cloudy 37 2.8 34 1.1 89 89 WNW 20 31 29.99 1016 10 16 0.00 0.00
6:56 am 06:56 Cloudy 36 2.2 32 0 86 86 WNW 13 20 30.03 1017 10 16 0.00 0.00
7:56 am 07:56 Cloudy 36 2.2 31 -0.6 82 82 WNW 14 22 30.06 1018 10 16 0.00 0.00
8:56 am 08:56 Cloudy 36 2.2 30 -1.1 79 79 NW 12 19 30.07 1018 10 16 0.00 0.00
9:56 am 09:56 Cloudy 37 2.8 31 -0.6 79 79 WNW 9 15 30.08 1019 10 16 0.00 0.00
10:56 am 10:56 Cloudy 38 3.3 31 -0.6 76 76 WNW 12 19 30.10 1019 10 16 0.00 0.00
11:56 am 11:56 Cloudy 41 5 31 -0.6 67 67 VRB 3 6 30.09 1019 10 16 0.00 0.00
12:56 pm 12:56 Mostly Cloudy 46 7.8 32 0 58 58 W 7 11 30.10 1019 10 16 0.00 0.00
1:06 pm 13:06 Mostly Cloudy 45 7 30 -1 57 57 NW 8 13 30.10 1019 10 16 0.00 0.00
1:56 pm 13:56 Cloudy 47 8.3 31 -0.6 54 54 W 7 11 30.10 1019 10 16 0.00 0.00
2:56 pm 14:56 Cloudy 49 9.4 32 0 52 52 W 10 17 30.08 1019 10 16 0.00 0.00
3:56 pm 15:56 Mostly Cloudy 51 10.6 32 0 48 48 W 10 17 30.06 1018 10 16 0.00 0.00
4:56 pm 16:56 Cloudy 51 10.6 30 -1.1 44 44 NW 8 13 30.06 1018 10 16 0.00 0.00
5:56 pm 17:56 Mostly Cloudy 50 10 29 -1.7 44 44 N 9 15 30.04 1017 10 16 0.00 0.00
6:56 pm 18:56 Mostly Cloudy 48 8.9 29 -1.7 48 48 NW 5 7 30.05 1018 10 16 0.00 0.00
7:56 pm 19:56 Cloudy 48 8.9 30 -1.1 50 50 NNE 5 7 30.06 1018 10 16 0.00 0.00
8:56 pm 20:56 Cloudy 45 7.2 31 -0.6 58 58 E 3 6 30.08 1019 10 16 0.00 0.00
9:56 pm 21:56 Clear 41 5 30 -1.1 65 65 ESE 5 7 30.08 1019 10 16 0.00 0.00
10:56 pm 22:56 Clear 37 2.8 30 -1.1 76 76 E 5 7 30.07 1018 10 16 0.00 0.00
11:56 pm 23:56 Clear 35 1.7 30 -1.1 82 82 ESE 6 9 30.07 1018 10 16 0.00 0.00

Powered by AerisWeather